Location: Newark
(44.1667°N, 8.2500°E)
Time: 11:34:07
(UTC+00:00)

Vanguard 2 - Pass Details

Date: 14 December 2019
Orbit: 553 x 2938 km, 32.9° (Epoch: 18 January)

Event Time Altitude Azimuth Distance (km) Brightness Sun altitude
Exits shadow 05:00:12 19° 261° (W) 4,990 11.1 -19.6°
Maximum altitude 05:11:56 41° 208° (SSW) 3,696 10.8 -17.6°
Drops below altitude 10° 05:25:31 10° 145° (SE) 4,936 12.4 -15.2°
Sets 05:29:12 0° 138° (SE) 5,657 13.1 -14.6°
